User: anonymous   Login
Location: Unspecified
(0.0000°N, 0.0000°E)
Time: 23:17:05
(UTC+00:00)
Language:

Resurs 1-3 - Orbit

View from above orbital plane
View from above orbital plane
View from above satellite
View from above satellite

Ground track
Ground track

The orbit data is extracted from the following two-line orbital elements,

1 23342U 94074A   18109.69494953  .00000009  00000-0  83199-5 0  9990
2 23342  98.0381 153.7079 0001416 116.8149 243.3207 14.79331551263099
Epoch (UTC): 19 April 2018 16:40:43
Eccentricity: 0.0001416
inclination: 98.0381°
perigee height: 630 km
apogee height: 632 km
right ascension of ascending node: 153.7079°
argument of perigee: 116.8149°
revolutions per day: 14.79331551
mean anomaly at epoch: 243.3207°
orbit number at epoch: 26309

The dashed part of the orbit path shows where the satellite is in the earth's shadow,  

DLR